Location: North Wawona
(37.5477°N, 119.6446°W)
Time: 20:56:19
(UTC+00:00)

Cosmos 2208 Rocket - Visible Passes

Search period start: 02 November 2024 00:00
Search period end: 12 November 2024 00:00
Orbit: 751 x 803 km, 74.0° (Epoch: 01 November)

Date Brightness Start Highest point End Pass type
(mag) Time Alt. Az. Time Alt. Az. Time Alt. Az.
08 Nov 6.3 03:12:17 10° N 03:12:45 12° N 03:12:45 12° N visible
09 Nov 6.0 02:38:26 10° N 02:39:27 14° NNE 02:39:27 14° NNE visible
10 Nov 5.9 02:05:03 10° NNE 02:06:16 13° NE 02:06:16 13° NE visible
10 Nov 6.2 03:45:30 10° NNW 03:46:46 18° NNW 03:46:46 18° NNW visible
11 Nov 5.3 03:11:07 10° NNW 03:13:45 30° N 03:13:45 30° N visible
